[[{"header":{"parameterUnit":"m.s-1","parameterCategory":1,"la1":30.2991,"la2":30.254,"lo1":-89.0895,"lo2":-89.0444,"dy":0.0017,"dx":0.0017,"nx":28,"ny":28,"refTime":"2025-12-16T09:00:00:Z","depth":0,"parameterNumber":2,"parameterNumberName":"U-component_of_WINDS"},"data":[0,0,0,0,0,0,0,0,0,0,0,0,0,0,0,0,0,0,0,0,0,0,0,0,0,0,0,0,0,0,0,0,0,0,0,0,0,0,0,0,0,0,0,0,0,0,0,0,0,0,0,0,0,0,0,0,0,0,-6.4827,-6.4828,0,-6.4928,-6.4929,-6.493,-6.4808,-6.4803,-6.4798,-6.4794,-6.4899,-6.4906,-6.4913,0,0,0,0,0,0,0,0,0,0,0,0,0,-6.4528,-6.4534,-6.4827,-6.4828,-6.4829,-6.4928,-6.4929,-6.4931,-6.4808,-6.4803,-6.4797,-6.4792,-6.4897,-6.4905,-6.4913,0,0,0,0,0,0,0,0,0,0,0,0,0,-6.4647,-6.4536,-6.4827,-6.478,-6.4777,-6.4928,-6.4929,-6.4931,-6.481,-6.4803,-6.4796,-6.4789,-6.4894,-6.4904,-6.4914,-6.5116,0,0,-6.4947,-6.4951,0,0,0,0,0,0,0,0,-6.464,-6.4658,-6.4786,-6.4784,-6.478,-6.4848,-6.4862,-6.4993,-6.4811,-6.4797,-6.4794,-6.4786,-6.4888,-6.4898,-6.4932,-6.5121,-6.5125,-6.4948,-6.4954,-6.4958,-6.4961,0,0,0,0,0,0,0,-6.4632,-6.4653,-6.4867,-6.4788,-6.4785,-6.4755,-6.4764,-6.4887,-6.488,-6.4798,-6.4789,-6.4803,-6.4885,-6.4922,-6.4934,-6.5127,-6.4947,-6.4957,-6.4963,-6.4967,-6.5485,-6.5492,0,0,0,0,0,0,-6.4629,-6.4647,-6.4864,-6.487,-6.4692,-6.4765,-6.4776,-6.4833,-6.4878,-6.4878,-6.4809,-6.4797,-6.4908,-6.4922,-6.4937,-6.5174,-6.4958,-6.4968,-6.4974,-6.5478,-6.5486,-6.5495,0,0,0,0,0,0,-6.4623,-6.465,-6.486,-6.4756,-6.478,-6.4778,-6.4844,-6.4839,-6.4876,-6.4886,-6.4884,-6.4848,-6.4903,-6.4922,-6.5072,-6.5176,-6.4973,-6.4983,-6.5469,-6.548,-6.5491,-6.5652,0,0,0,0,0,0,-6.4615,-6.4648,-6.4725,-6.4759,-6.4787,-6.4993,-6.485,-6.4846,-6.4895,-6.488,-6.4922,-6.4923,-6.4899,-6.5057,-6.5083,-6.5187,-6.4991,-6.5459,-6.5474,-6.5487,-6.5637,-6.5667,-6.5693,0,0,0,0,0,-6.4605,-6.4767,-6.4729,-6.4756,-6.4882,-6.5,-6.5015,-6.4984,-6.4904,-6.498,-6.4986,-6.4922,-6.5161,-6.5073,-6.5101,-6.5211,-6.5453,-6.547,-6.5486,-6.5625,-6.5662,-6.5692,0,0,0,0,0,0,-6.4745,-6.477,-6.4729,-6.4906,-6.4952,-6.4978,-6.5074,-6.5024,-6.5094,-6.5077,-6.5036,-6.5047,-6.5206,-6.5223,-6.5125,-6.5407,-6.5294,-6.5317,-6.539,-6.5425,-6.5452,-6.5444,-6.5,0,0,0,0,0,-6.4797,-6.489,-6.4907,-6.5062,-6.5087,-6.5077,-6.5127,-6.5099,-6.5145,-6.5163,-6.518,-6.5227,-6.5313,-6.537,-6.5449,-6.564,-6.5647,-6.5729,-6.5757,-6.578,-6.58,-6.59,-6.5937,-6.5549,-6.5549,-6.5549,0,0,-6.4904,-6.4929,-6.4991,-6.5091,-6.5122,-6.522,-6.5094,-6.5202,-6.5274,-6.518,-6.5321,-6.5336,-6.5386,-6.5557,-6.5633,-6.5576,-6.5908,-6.5801,-6.5819,-6.5827,-6.5921,-6.5958,-6.5991,-6.5561,-6.5559,-6.5557,0,0,-6.5149,-6.5178,-6.5309,-6.5344,-6.5394,-6.5386,-6.5418,-6.5453,-6.5459,-6.5601,-6.5532,-6.5617,-6.5766,-6.5803,-6.5842,-6.6102,-6.6045,-6.613,-6.6274,-6.6373,-6.6404,-6.643,-6.6522,-6.6555,-6.615,-6.615,-6.6151,0,-6.5276,-6.5419,-6.5384,-6.5497,-6.5543,-6.5462,-6.5595,-6.563,-6.5704,-6.5737,-6.5673,-6.5857,-6.5885,-6.6063,-6.6126,-6.6161,-6.6196,-6.6124,-6.6402,-6.6429,-6.6453,-6.654,-6.6574,-6.616,-6.6159,-6.6158,-6.6157,0,-6.5572,-6.5673,-6.5774,-6.5846,-6.5903,-6.6026,-6.6009,-6.6071,-6.6039,-6.6039,-6.6184,-6.6215,-6.6299,-6.6339,-6.6309,-6.6514,-6.6476,-6.6409,-6.6293,-6.6501,-6.6581,-6.6614,-6.6174,-6.6171,-6.6168,-6.6165,0,0,-6.5907,-6.5958,-6.5995,-6.6027,-6.6076,-6.6153,-6.6273,-6.6354,-6.6408,-6.6462,-6.656,-6.6689,-6.6625,-6.667,-6.6643,-6.6731,-6.6933,-6.6651,-6.6652,-6.6701,-6.7158,-6.7207,-6.7246,-6.6896,-6.6902,-6.6907,-6.7153,0,-6.615,-6.6355,-6.6327,-6.6525,-6.6617,-6.6542,-6.6646,-6.6688,-6.6691,-6.677,-6.6773,-6.6864,-6.6775,-6.6801,-6.6884,-6.6891,-6.7024,-6.6873,-6.6986,-6.699,-6.6974,-6.7289,-6.7341,-6.7572,-6.7185,-6.719,-6.7194,0,-6.6461,-6.6526,-6.6733,-6.6767,-6.6805,-6.6898,-6.697,-6.7047,-6.7093,-6.7089,-6.7139,-6.7097,-6.7216,-6.7101,-6.7264,-6.7162,-6.7207,-6.7218,-6.7226,-6.7233,-6.7103,-6.7303,-6.7645,-6.7679,-6.7243,-6.724,-6.7236,0,-6.6682,-6.6821,-6.6962,-6.6992,-6.7036,-6.7103,-6.7125,-6.7164,-6.7215,-6.7279,-6.7311,-6.7389,-6.7431,-6.7491,-6.7471,-6.7389,-6.7639,-6.7521,-6.7638,-6.7639,-6.7692,-6.7688,-6.8044,-6.7725,-6.7725,-6.7724,-6.7723,0,-6.6955,-6.7084,-6.7061,-6.7148,-6.729,-6.7257,-6.7399,-6.7411,-6.7447,-6.7535,-6.7476,-6.756,-6.7529,-6.7612,-6.7597,-6.7734,-6.7754,-6.7753,-6.7748,-6.7757,-6.7757,-6.7784,-6.7767,-6.7733,-6.7731,-6.7729,-6.7728,0,-6.7224,-6.7214,-6.7363,-6.7393,-6.7404,-6.7507,-6.7533,-6.7614,-6.7613,-6.7725,-6.775,-6.7748,-6.7842,-6.7829,-6.7933,-6.7923,-6.8093,-6.8069,-6.8077,-6.8071,-6.8187,-6.8176,-6.8571,-6.862,-6.8272,-6.8276,-6.8278,0,-6.7398,-6.7495,-6.7536,-6.759,-6.7617,-6.7706,-6.7757,-6.7729,-6.7785,-6.7845,-6.7919,-6.8007,-6.8076,-6.8229,-6.8237,-6.8317,-6.8293,-6.8426,-6.8304,-6.8311,-6.8292,-6.8286,-6.8294,-6.8449,-6.8453,-6.8457,-6.8459,0,-6.7707,-6.7697,-6.7773,-6.7849,-6.7912,-6.797,-6.8022,-6.807,-6.8046,-6.8113,-6.8207,-6.8261,-6.8367,-6.8455,-6.853,-6.8552,-6.8502,-6.8498,-6.8528,-6.8538,-6.8538,-6.8537,-6.814,-6.8488,-6.8485,-6.8483,-6.8482,-6.848,-6.7932,-6.8014,-6.8056,-6.8143,-6.8179,-6.8229,-6.8307,-6.8316,-6.8394,-6.8478,-6.8457,-6.8564,-6.8608,-6.8703,-6.8734,-6.8817,-6.8768,-6.8813,-6.8824,-6.8835,-6.8847,-6.8527,-6.8831,-6.883,-6.8829,-6.8828,-6.8828,0,-6.8236,-6.8259,-6.8339,-6.8414,-6.8482,-6.843,-6.8485,-6.8545,-6.864,-6.8685,-6.8754,-6.8863,-6.8948,-6.8964,-6.9045,-6.9109,-6.9088,-6.9131,-6.9124,-6.913,-6.8888,-6.8852,-6.9147,-6.9146,-6.9146,-6.9146,-6.9146,-6.9146,-6.8401,-6.8538,-6.8533,-6.8687,-6.8709,-6.8813,-6.8849,-6.8895,-6.893,-6.9054,-6.9125,-6.9135,-6.9168,-6.9251,-6.9327,-6.933,-6.9361,-6.9413,-6.9407,-6.9179,-6.9147,-6.9117,-6.9083,-6.9421,-6.9422,-6.9642,-6.9644,-6.9645]},{"header":{"parameterUnit":"m.s-1","parameterCategory":1,"la1":30.2991,"la2":30.254,"lo1":-89.0895,"lo2":-89.0444,"dy":0.0017,"dx":0.0017,"nx":28,"ny":28,"refTime":"2025-12-16T09:00:00:Z","depth":0,"parameterNumber":3,"parameterNumberName":"V-component_of_WINDS"},"data":[0,0,0,0,0,0,0,0,0,0,0,0,0,0,0,0,0,0,0,0,0,0,0,0,0,0,0,0,0,0,0,0,0,0,0,0,0,0,0,0,0,0,0,0,0,0,0,0,0,0,0,0,0,0,0,0,0,0,0.0117,0.0117,0,0.0107,0.0107,0.0107,0.0102,0.0102,0.0102,0.0102,0.0091,0.0091,0.009,0,0,0,0,0,0,0,0,0,0,0,0,0,0.0133,0.0133,0.0117,0.0117,0.0117,0.0107,0.0107,0.0107,0.0102,0.0102,0.0102,0.0102,0.0091,0.0091,0.009,0,0,0,0,0,0,0,0,0,0,0,0,0,0.0125,0.0133,0.0117,0.0113,0.0113,0.0107,0.0107,0.0107,0.0102,0.0102,0.0102,0.0102,0.0091,0.0091,0.009,0.0087,0,0,0.0089,0.0089,0,0,0,0,0,0,0,0,0.0125,0.0124,0.0114,0.0114,0.0113,0.0106,0.0108,0.01,0.0102,0.0106,0.0102,0.0102,0.0096,0.0095,0.0093,0.0086,0.0086,0.0089,0.0088,0.0088,0.0088,0,0,0,0,0,0,0,0.0126,0.0125,0.0113,0.0114,0.0113,0.0113,0.0111,0.0107,0.0101,0.0106,0.0106,0.0105,0.0096,0.0093,0.0093,0.0085,0.0089,0.0088,0.0088,0.0088,0.0077,0.0077,0,0,0,0,0,0,0.0127,0.0125,0.0113,0.0113,0.012,0.0112,0.0111,0.0108,0.0101,0.01,0.0105,0.0104,0.0094,0.0093,0.0092,0.0089,0.0088,0.0088,0.0088,0.0077,0.0077,0.0077,0,0,0,0,0,0,0.0128,0.0126,0.0114,0.0119,0.0117,0.0112,0.0109,0.0108,0.0106,0.01,0.0099,0.0103,0.0094,0.0093,0.0089,0.0088,0.0088,0.0087,0.0077,0.0077,0.0077,0.0081,0,0,0,0,0,0,0.0128,0.0126,0.0124,0.0119,0.0117,0.011,0.0109,0.0108,0.0105,0.0105,0.0099,0.0098,0.0094,0.0089,0.0088,0.0088,0.0087,0.0077,0.0077,0.0077,0.0081,0.0081,0.0082,0,0,0,0,0,0.0129,0.0125,0.0124,0.0123,0.0115,0.011,0.0109,0.0105,0.0105,0.0104,0.01,0.0098,0.0089,0.0089,0.0088,0.0087,0.0077,0.0077,0.0077,0.0081,0.0081,0.0082,0,0,0,0,0,0,0.013,0.0124,0.0123,0.0118,0.0115,0.0109,0.0107,0.0105,0.0102,0.0101,0.0097,0.0096,0.0092,0.0089,0.0089,0.0084,0.0083,0.0083,0.0086,0.0087,0.0087,0.0088,0.0086,0,0,0,0,0,0.013,0.0127,0.0122,0.0118,0.0116,0.0112,0.011,0.0108,0.0104,0.0102,0.0098,0.0094,0.0091,0.0088,0.0085,0.0081,0.008,0.008,0.008,0.0081,0.008,0.008,0.008,0.0077,0.0077,0.0077,0,0,0.0129,0.0126,0.0124,0.0118,0.0115,0.0112,0.0111,0.0107,0.0105,0.0101,0.0097,0.0095,0.009,0.0087,0.0085,0.0084,0.0081,0.0081,0.0081,0.008,0.008,0.008,0.0081,0.0077,0.0077,0.0077,0,0,0.0126,0.0123,0.012,0.0118,0.0114,0.0112,0.0111,0.0106,0.0105,0.0101,0.0099,0.0097,0.009,0.0088,0.0086,0.0085,0.0083,0.0084,0.0085,0.0085,0.0085,0.0085,0.0086,0.0086,0.0084,0.0084,0.0084,0,0.0126,0.0121,0.0119,0.0116,0.0114,0.0112,0.011,0.0107,0.0102,0.0101,0.01,0.0094,0.0091,0.0087,0.0088,0.0085,0.0085,0.0084,0.0085,0.0085,0.0086,0.0086,0.0087,0.0084,0.0084,0.0084,0.0084,0,0.0122,0.0119,0.0117,0.0113,0.0111,0.0109,0.0106,0.0105,0.0103,0.0101,0.0099,0.0095,0.0092,0.0091,0.0088,0.0088,0.0088,0.0086,0.0085,0.0086,0.0087,0.0087,0.0084,0.0084,0.0084,0.0084,0,0,0.0118,0.0115,0.0114,0.0113,0.011,0.0108,0.0106,0.0103,0.0103,0.01,0.0099,0.0095,0.0094,0.0092,0.009,0.0089,0.0091,0.0088,0.0088,0.009,0.0092,0.0093,0.0093,0.009,0.009,0.009,0.0092,0,0.0115,0.0112,0.0111,0.0108,0.0106,0.0105,0.0104,0.0102,0.0101,0.0099,0.0098,0.0095,0.0094,0.0093,0.0093,0.0091,0.0091,0.0091,0.0089,0.0089,0.0091,0.0094,0.0095,0.0097,0.0093,0.0093,0.0093,0,0.0111,0.011,0.0107,0.0107,0.0106,0.0104,0.0103,0.0102,0.01,0.0099,0.0098,0.0097,0.0096,0.0095,0.0094,0.0093,0.0093,0.0092,0.0092,0.0092,0.0091,0.0094,0.0097,0.0098,0.0093,0.0093,0.0093,0,0.011,0.0108,0.0106,0.0106,0.0104,0.0104,0.0103,0.0102,0.0101,0.01,0.01,0.0098,0.0098,0.0097,0.0095,0.0095,0.0095,0.0094,0.0095,0.0095,0.0095,0.0095,0.0098,0.0094,0.0094,0.0094,0.0094,0,0.0107,0.0106,0.0106,0.0105,0.0105,0.0104,0.0103,0.0102,0.0102,0.0101,0.01,0.01,0.0098,0.0098,0.0097,0.0097,0.0096,0.0096,0.0096,0.0096,0.0097,0.0096,0.0096,0.0094,0.0094,0.0094,0.0094,0,0.0105,0.0105,0.0104,0.0104,0.0104,0.0103,0.0103,0.0103,0.0103,0.0102,0.0102,0.0101,0.0101,0.01,0.0099,0.0099,0.01,0.0099,0.01,0.01,0.0102,0.0102,0.0106,0.0107,0.0101,0.0101,0.0101,0,0.0104,0.0103,0.0104,0.0104,0.0104,0.0103,0.0103,0.0103,0.0103,0.0103,0.0103,0.0103,0.0103,0.0103,0.0103,0.0103,0.0102,0.0104,0.0102,0.0103,0.0103,0.0104,0.0104,0.0104,0.0104,0.0104,0.0104,0,0.0101,0.0102,0.0102,0.0103,0.0103,0.0103,0.0104,0.0104,0.0104,0.0104,0.0105,0.0105,0.0105,0.0106,0.0106,0.0106,0.0105,0.0105,0.0105,0.0106,0.0107,0.0108,0.0102,0.0104,0.0104,0.0104,0.0104,0.0104,0.01,0.01,0.0101,0.0102,0.0103,0.0104,0.0104,0.0105,0.0105,0.0106,0.0106,0.0107,0.0108,0.0109,0.0109,0.011,0.0109,0.0109,0.011,0.011,0.0111,0.0107,0.011,0.011,0.011,0.011,0.011,0,0.0099,0.01,0.0101,0.0102,0.0103,0.0104,0.0105,0.0105,0.0107,0.0108,0.0108,0.011,0.0111,0.0112,0.0113,0.0114,0.0114,0.0114,0.0115,0.0115,0.0111,0.0111,0.0115,0.0115,0.0115,0.0115,0.0115,0.0115,0.0098,0.0099,0.01,0.0102,0.0103,0.0105,0.0106,0.0107,0.0108,0.011,0.0112,0.0113,0.0114,0.0116,0.0117,0.0117,0.0118,0.0119,0.0119,0.0115,0.0115,0.0114,0.0114,0.0119,0.0119,0.0124,0.0124,0.0124]}]]